This is the latest recevied weather packets stored in our database for station/object IW4ENL-7. If no packets are shown the sender has not sent any weather packets the latest 1 day(s).
| Time | Temp. | Humidity | Pressure | Rain* | Wind** | Luminosity | Snow |
|---|---|---|---|---|---|---|---|
| 1777970518 | 12.78° C | 61% | 961 hPa | - | 2.24 m/s, 94° | - | - |
| 1777970335 | 12.22° C | 61% | 961 hPa | - | 2.24 m/s, 92° | - | - |
| 1777970152 | 11.11° C | 61% | 961 hPa | - | 4.02 m/s, 103° | - | - |
| 1777969970 | 11.11° C | 60% | 961 hPa | - | 2.68 m/s, 107° | - | - |
| 1777969421 | 10.56° C | 59% | 961 hPa | - | 3.13 m/s, 112° | - | - |
| 1777969055 | 10° C | 58% | 961 hPa | - | 1.34 m/s, 90° | - | - |
| 1777968872 | 10° C | 58% | 961 hPa | - | 2.24 m/s, 135° | - | - |
| 1777968697 | 10° C | 58% | 961 hPa | - | 2.24 m/s, 148° | - | - |
| 1777968141 | 10° C | 58% | 961 hPa | - | 1.79 m/s, 180° | - | - |
| 1777967958 | 10° C | 58% | 961 hPa | - | 1.79 m/s, 157° | - | - |
| 1777967775 | 10° C | 59% | 961 hPa | - | 0.89 m/s, 164° | - | - |
| 1777967409 | 10° C | 59% | 961 hPa | - | 1.34 m/s, 230° | - | - |
| 1777967226 | 10° C | 58% | 961 hPa | - | 1.79 m/s, 253° | - | - |
| 1777966860 | 10° C | 57% | 961 hPa | - | 0.45 m/s, 274° | - | - |
| 1777966678 | 10° C | 57% | 961 hPa | - | 0 m/s | - | - |
| 1777966495 | 10° C | 57% | 961 hPa | - | 0.45 m/s, 288° | - | - |
| 1777966312 | 10° C | 57% | 961 hPa | - | 0.45 m/s, 293° | - | - |
| 1777966129 | 10° C | 57% | 961 hPa | - | 0.89 m/s, 270° | - | - |
| 1777965947 | 10° C | 57% | 961 hPa | - | 0.89 m/s, 298° | - | - |
| 1777965764 | 9.44° C | 57% | 961 hPa | - | 0 m/s | - | - |
| 1777965581 | 9.44° C | 58% | 961 hPa | - | 0.89 m/s, 288° | - | - |
| 1777965398 | 10° C | 58% | 961 hPa | - | 1.34 m/s, 311° | - | - |
| 1777965215 | 9.44° C | 58% | 961 hPa | - | 0.45 m/s, 280° | - | - |
| 1777965033 | 9.44° C | 58% | 961 hPa | - | 0 m/s | - | - |
| 1777964850 | 9.44° C | 57% | 961 hPa | - | 0 m/s | - | - |
* Rain since midnight (hover to see other rain measurements)
** Current wind speed in m/s (hover to see current wind gust speed)